Torna al catalogo

STARLINK-37202

AttivoComunicazioniSSO
NORAD 68731·PAYLOAD·🇺🇸 United States

Lanciato Apr 15, 2026 da Vandenberg Space Force Base

Loading…

Prossimi Passaggi (prossime 24 ore)

TLE

AggiornatoSource: CelesTrak SupGP

Epoca: Sep 14, 2026, 21:00 UTC

1 68731C 26082D   26257.87548611  .00008155  00000+0  25334-3 0  2570
2 68731  97.2847 120.0460 0001869  96.5471 119.7110 15.33410782    18

Traccia STARLINK-37202 in tempo reale con AllMySat

Download on the App Store